CW3467 Sant Marti de Canals ES current weather conditions

sailwx.info

Wind from 274

Air temperature 20.6° C
Dewpoint 13.7° C

Last reported at 2018-May-27 09:01 UTC.
Time now 2018-May-27 10:01 UTC

Location: N 42°14' E 000°59'.
View on Google Maps.

See reports from other nearby stations

  
Tides and Currents Weather Stations Pressure Air Temp Water Temp Dewpoint Dewpoint Depression Visibility Wind Speed Wind Dir Waves Ship Positions
date/time (UTC)wind fromknots sea level pressurealtimeterstation pressurevisibilityair tempwater tempwave heightnotes
2018-May-27 09:01 274 20.6
2018-May-27 08:31 240 0 gusting 2 20.0
2018-May-27 08:01 218 19.4
2018-May-27 07:46 218 0 gusting 1 18.9
2018-May-27 07:31 221 17.8
2018-May-27 07:16 324 16.1
2018-May-27 07:01 325 15.6
2018-May-27 06:46 045 15.0
2018-May-27 06:32 066 15.0
2018-May-27 06:16 051 15.0
2018-May-27 06:01 051 14.4
2018-May-27 05:46 051 13.9
2018-May-27 05:31 036 14.4
2018-May-27 05:16 033 13.9
2018-May-27 05:01 033 13.9
2018-May-27 04:46 270 13.3
2018-May-27 04:30 270 13.9
2018-May-27 04:15 286 13.9
2018-May-27 04:00 091 14.4
2018-May-27 03:30 276 14.4
2018-May-27 03:15 276 14.4
2018-May-27 03:00 276 14.4
2018-May-27 02:45 086 14.4
2018-May-27 02:30 094 14.4
2018-May-27 02:15 094 15.0
2018-May-27 02:00 093 15.0
2018-May-27 01:45 022 15.0
2018-May-27 01:30 022 15.0
2018-May-27 01:15 029 15.0
2018-May-27 01:00 128 15.0
2018-May-27 00:45 127 15.0
2018-May-27 00:30 015 15.0
2018-May-27 00:15 111 0 gusting 2 15.0
2018-May-27 00:00 123 15.6
2018-May-26 23:45 221 16.1
2018-May-26 23:30 103 16.1
2018-May-26 23:15 120 1 gusting 1 16.1
2018-May-26 23:00 041 16.7
2018-May-26 22:45 041 16.7
2018-May-26 22:30 041 17.2
2018-May-26 22:15 066 0 gusting 2 16.7
2018-May-26 22:00 058 0 gusting 1 17.2
2018-May-26 21:45 015 17.2
2018-May-26 21:30 027 0 gusting 2 17.2
2018-May-26 21:00 028 0 gusting 2 17.8
2018-May-26 20:45 009 0 gusting 2 17.8
2018-May-26 20:30 120 0 gusting 3 18.3
2018-May-26 20:15 124 18.9
2018-May-26 20:00 177 0 gusting 4 18.9
2018-May-26 19:45 275 18.9
2018-May-26 19:30 191 0 gusting 6 19.4
2018-May-26 19:15 262 0 gusting 6 19.4
2018-May-26 19:00 248 0 gusting 3 19.4
2018-May-26 18:45 015 2 gusting 4 19.4
2018-May-26 18:30 328 3 gusting 8 20.6
2018-May-26 18:15 278 3 gusting 6 20.6
2018-May-26 18:00 321 2 gusting 5 21.1
2018-May-26 17:45 226 0 gusting 6 21.1
2018-May-26 17:30 228 0 gusting 3 21.7
2018-May-26 17:15 169 3 gusting 9 21.7
2018-May-26 17:00 222 22.2
2018-May-26 16:45 186 1 gusting 4 22.8
2018-May-26 16:30 133 0 gusting 3 22.2
2018-May-26 16:15 145 6 gusting 11 22.8
2018-May-26 16:00 152 6 gusting 12 23.3
2018-May-26 15:45 125 23.9
2018-May-26 15:30 233 23.3
2018-May-26 15:15 302 2 gusting 6 22.8
2018-May-26 15:00 269 1 gusting 3 23.9
2018-May-26 14:45 209 0 gusting 3 23.3
2018-May-26 14:29 222 2 gusting 6 23.3
2018-May-26 14:14 152 0 gusting 6 23.9
2018-May-26 14:00 151 2 gusting 6 23.9
2018-May-26 13:45 212 5 gusting 10 23.3
2018-May-26 13:30 165 5 gusting 11 23.3
2018-May-26 13:15 193 5 gusting 8 23.9
2018-May-26 13:00 218 2 gusting 6 23.3
2018-May-26 12:45 277 0 gusting 5 23.3
2018-May-26 12:15 249 22.2
2018-May-26 12:00 210 3 gusting 6 21.7
2018-May-26 11:45 300 2 gusting 6 21.7
2018-May-26 11:30 285 2 gusting 6 22.2
2018-May-26 11:15 266 0 gusting 3 22.2
2018-May-26 11:00 270 1 gusting 5 21.7
2018-May-26 10:45 318 1 gusting 4 21.1
2018-May-26 10:30 294 3 gusting 5 21.1
2018-May-26 10:15 257 2 gusting 3 21.1
2018-May-26 10:00 322 21.1
2018-May-26 09:45 335 20.0
2018-May-26 09:30 319 0 gusting 3 19.4
2018-May-26 09:15 017 1 gusting 2 18.3
2018-May-26 09:00 288 2 gusting 6 18.3
2018-May-26 08:45 284 18.9
2018-May-26 08:30 011 0 gusting 2 17.8
2018-May-26 08:15 296 0 gusting 1 18.9
2018-May-26 08:00 240 19.4
2018-May-26 07:45 330 20.0
2018-May-26 07:30 342 19.4
2018-May-26 07:15 267 18.9
2018-May-26 07:00 026 18.9
2018-May-26 06:45 288 17.2
2018-May-26 06:30 284 16.7
2018-May-26 06:14 233 16.1
2018-May-26 05:59 218 15.6
2018-May-26 05:44 215 14.4
2018-May-26 05:29 134 0 gusting 2 13.9
2018-May-26 05:14 159 0 gusting 1 14.4
2018-May-26 04:59 321 0 gusting 1 15.0
2018-May-26 04:44 030 0 gusting 2 15.0
2018-May-26 04:29 054 0 gusting 1 15.0
2018-May-26 04:14 039 14.4
2018-May-26 03:59 101 1 gusting 2 13.3
2018-May-26 03:44 205 0 gusting 2 13.9
2018-May-26 02:59 347 14.4
2018-May-26 02:44 100 13.9
2018-May-26 02:31 072 14.4
2018-May-26 01:59 224 14.4
2018-May-26 01:29 091 13.9
2018-May-26 01:14 117 15.6
2018-May-26 00:59 243 15.0
2018-May-26 00:44 153 15.0
2018-May-26 00:29 255 15.0
2018-May-26 00:14 108 0 gusting 3 15.6
2018-May-25 23:59 109 15.6
2018-May-25 23:44 333 0 gusting 3 16.1
2018-May-25 23:29 348 1 gusting 4 15.6
2018-May-25 23:14 113 15.6
2018-May-25 22:59 183 1 gusting 4 15.6
2018-May-25 22:44 089 15.6
2018-May-25 22:29 160 0 gusting 2 16.1
2018-May-25 22:14 125 16.7
2018-May-25 21:59 132 16.7
2018-May-25 21:44 008 17.2
2018-May-25 21:29 351 17.8
2018-May-25 21:14 340 18.3
2018-May-25 20:59 349 18.3
2018-May-25 20:44 116 18.9
2018-May-25 20:29 347 18.9
2018-May-25 20:14 351 1 gusting 4 19.4
2018-May-25 19:59 061 18.9
2018-May-25 19:44 046 19.4
2018-May-25 19:29 349 0 gusting 2 19.4
2018-May-25 19:14 332 20.0
2018-May-25 18:59 122 20.6
2018-May-25 18:44 113 21.1
2018-May-25 18:29 257 2 gusting 6 21.1
2018-May-25 18:14 210 1 gusting 3 21.1
2018-May-25 17:59 283 21.7
2018-May-25 17:44 226 22.2
2018-May-25 17:29 033 23.3
2018-May-25 17:14 138 0 gusting 5 23.9
2018-May-25 16:59 211 24.4
2018-May-25 16:44 160 0 gusting 3 24.4
2018-May-25 16:29 231 3 gusting 6 24.4
2018-May-25 16:14 153 5 gusting 12 24.4
2018-May-25 15:59 166 2 gusting 10 24.4
2018-May-25 15:44 201 6 gusting 10 24.4
2018-May-25 15:29 157 4 gusting 11 24.4
2018-May-25 15:14 139 23.9
2018-May-25 14:59 194 0 gusting 7 24.4
2018-May-25 14:44 166 2 gusting 7 24.4
2018-May-25 14:29 124 1 gusting 9 23.9
2018-May-25 14:13 148 1 gusting 9 23.9
2018-May-25 13:58 119 5 gusting 9 24.4
2018-May-25 13:44 165 4 gusting 11 25.0
2018-May-25 13:13 325 0 gusting 4 24.4
2018-May-25 12:58 336 0 gusting 6 23.9
2018-May-25 12:43 323 24.4
2018-May-25 12:28 262 23.3
2018-May-25 12:13 207 0 gusting 4 23.3
2018-May-25 11:58 311 2 gusting 6 23.3
2018-May-25 11:43 288 0 gusting 4 23.3
2018-May-25 11:28 238 0 gusting 3 23.3
2018-May-25 11:13 215 0 gusting 1 22.2
2018-May-25 10:58 221 0 gusting 3 21.1
2018-May-25 10:43 357 0 gusting 5 20.0
2018-May-25 10:28 183 1 gusting 4 20.0
2018-May-25 10:13 240 19.4